CW9203 Weather Reports


Display with metric or nautical units.
time (UTC)temp
F
wind
direction
speed
MPH
gust
MPH
rain 1hr
in
rain 24hr
in
rain mn
in
humidity
%
barometer
mb
20260507100805 65 340 2.0 3.0 0.00 0.03 0.02 4 1022.4
20260507093805 65 336 2.0 9.0 0.00 0.03 0.02 4 1022.2
20260507093304 65 349 3.0 12.0 0.00 0.03 0.02 4 1022.1
20260507091805 65 4 3.0 16.0 0.00 0.03 0.02 4 1021.9
20260507090304 65 4 5.0 16.0 0.00 0.03 0.02 4 1021.7
20260507083806 65 11 4.0 10.0 0.00 0.03 0.02 4 1021.3
20260507081305 65 14 5.0 12.0 0.00 0.03 0.02 4 1021.6
20260507080306 65 10 3.0 12.0 0.00 0.03 0.02 4 1021.8
20260507075805 65 18 5.0 12.0 0.00 0.03 0.02 4 1021.8
20260507073305 65 19 3.0 12.0 0.00 0.03 0.02 4 1021.9
20260507072307 65 357 2.0 7.0 0.00 0.03 0.02 4 1022.2
20260507071807 66 354 2.0 5.0 0.00 0.03 0.02 4 1022.2
20260507065805 66 325 1.0 6.0 0.00 0.03 0.02 4 1022.3
20260507064805 66 335 2.0 6.0 0.00 0.03 0.02 4 1022.4
20260507063305 66 341 2.0 5.0 0.00 0.03 0.02 4 1022.6
20260507062804 66 322 2.0 5.0 0.00 0.03 0.02 4 1022.5
20260507061306 66 331 1.0 3.0 0.00 0.03 0.02 4 1022.4
20260507060805 66 355 3.0 9.0 0.00 0.03 0.02 4 1022.3
20260507060307 66 345 3.0 10.0 0.00 0.03 0.02 4 1022.4
20260507055306 66 340 1.0 3.0 0.00 0.03 0.02 4 1022.4
20260507054804 66 343 1.0 5.0 0.00 0.03 0.02 4 1022.4
20260507052306 66 349 2.0 7.0 0.00 0.03 0.02 4 1022.4
20260507051805 66 334 1.0 6.0 0.00 0.03 0.02 4 1022.5
20260507051305 67 342 3.0 9.0 0.00 0.03 0.02 4 1022.5
20260507044305 67 345 3.0 8.0 0.00 0.03 0.02 4 1022.6
20260507043305 68 345 3.0 10.0 0.00 0.03 0.02 4 1022.6
20260507042307 68 344 3.0 10.0 0.00 0.03 0.02 4 1022.7
20260507041805 68 354 4.0 15.0 0.00 0.03 0.02 4 1022.9
20260507035306 68 11 2.0 8.0 0.00 0.03 0.02 4 1022.9
20260507032805 69 13 3.0 12.0 0.00 0.03 0.02 10 1022.9
20260507032306 69 13 5.0 16.0 0.00 0.03 0.02 19 1022.9
20260507031804 70 5 5.0 12.0 0.00 0.03 0.02 24 1022.9
20260507030806 69 352 3.0 13.0 0.00 0.03 0.02 28 1022.9
20260507025306 69 3 12.0 23.0 0.00 0.03 0.02 26 1022.8
20260507022306 70 13 4.0 14.0 0.00 0.03 0.02 34 1023.5
20260507020804 70 315 3.0 15.0 0.00 0.03 0.02 39 1023.6
20260507020305 70 336 2.0 9.0 0.00 0.03 0.02 40 1023.5
20260507015306 71 332 5.0 16.0 0.00 0.03 0.02 47 1023.6
20260507014305 71 300 2.0 6.0 0.00 0.03 0.02 40 1023.7
20260507013804 71 333 2.0 6.0 0.00 0.03 0.02 43 1023.7
20260507013304 71 320 2.0 6.0 0.00 0.03 0.02 42 1023.8
20260507012306 71 334 3.0 12.0 0.00 0.03 0.02 31 1023.9
20260507011305 71 344 5.0 13.0 0.00 0.03 0.02 32 1024.1
20260507010804 70 327 2.0 13.0 0.00 0.03 0.02 28 1024.2
20260507010305 70 354 5.0 12.0 0.00 0.03 0.02 33 1024.2
20260507005805 70 342 5.0 15.0 0.00 0.03 0.02 34 1024.2
20260507004804 71 323 3.0 12.0 0.00 0.03 0.02 26 1024.3
20260507003305 70 310 4.0 13.0 0.00 0.03 0.02 20 1024.6
20260507002805 70 330 3.0 15.0 0.00 0.03 0.02 17 1024.7
20260507000306 70 334 5.0 13.0 0.00 0.03 0.02 4 1024.6
20260506235805 70 331 3.0 12.0 0.00 0.03 0.02 4 1024.6
20260506235306 70 351 6.0 13.0 0.00 0.03 0.02 4 1024.6
20260506233307 70 353 4.0 15.0 0.00 0.03 0.02 4 1024.8
20260506231305 70 305 4.0 13.0 0.00 0.03 0.02 4 1025.0
20260506230805 70 342 1.0 9.0 0.00 0.03 0.02 4 1025.0
20260506230305 70 2 7.0 15.0 0.00 0.03 0.02 4 1025.0
20260506225804 70 352 2.0 8.0 0.00 0.03 0.02 4 1025.1
20260506223304 69 335 3.0 8.0 0.00 0.03 0.02 4 1025.1
20260506222306 69 338 5.0 13.0 0.00 0.03 0.02 4 1025.2
20260506221305 69 356 7.0 18.0 0.00 0.03 0.02 4 1025.1
20260506220304 69 8 4.0 13.0 0.00 0.03 0.02 4 1025.3
20260506215307 68 346 5.0 13.0 0.00 0.03 0.02 16 1025.5
20260506214805 68 8 6.0 13.0 0.00 0.03 0.02 22 1025.5
20260506213805 68 18 5.0 14.0 0.00 0.03 0.02 25 1025.6
20260506212805 68 355 5.0 12.0 0.00 0.03 0.02 4 1025.7
20260506211305 67 19 6.0 12.0 0.00 0.03 0.02 4 1025.8
20260506210804 67 23 5.0 13.0 0.00 0.03 0.02 7 1025.9
20260506205306 67 29 6.0 10.0 0.00 0.03 0.02 7 1025.9
20260506204307 67 7 5.0 9.0 0.00 0.03 0.02 4 1026.0
20260506203804 67 44 4.0 12.0 0.00 0.03 0.02 4 1026.0
20260506202806 67 26 3.0 10.0 0.00 0.03 0.02 4 1026.0
20260506202306 67 357 5.0 8.0 0.00 0.03 0.02 4 1026.0
20260506201805 67 358 4.0 7.0 0.00 0.03 0.02 4 1026.1
20260506200304 65 34 3.0 7.0 0.00 0.03 0.02 4 1026.0
20260506195805 65 9 2.0 6.0 0.00 0.03 0.02 4 1026.0
20260506195306 64 31 2.0 7.0 0.00 0.03 0.02 4 1025.9
20260506194805 64 17 3.0 7.0 0.00 0.03 0.02 4 1025.9
20260506194306 64 18 3.0 8.0 0.00 0.03 0.02 4 1025.9
20260506193806 63 26 4.0 7.0 0.00 0.03 0.02 4 1025.9
20260506193305 63 34 5.0 8.0 0.00 0.03 0.02 4 1025.9
20260506192306 63 23 3.0 8.0 0.00 0.03 0.02 4 1026.0
20260506185804 63 19 4.0 12.0 0.00 0.03 0.02 4 1025.9
20260506185307 63 3 2.0 5.0 0.00 0.03 0.02 4 1025.9
20260506184805 63 21 2.0 7.0 0.00 0.03 0.02 4 1025.9
20260506183305 63 5 3.0 8.0 0.00 0.03 0.02 4 1025.9
20260506182307 62 20 2.0 7.0 0.00 0.03 0.02 4 1025.8
20260506181305 62 20 2.0 5.0 0.00 0.03 0.02 4 1025.9
20260506175807 62 23 2.0 7.0 0.00 0.03 0.02 4 1025.9
20260506175306 62 14 2.0 5.0 0.00 0.03 0.02 4 1025.9
20260506174307 63 36 2.0 7.0 0.00 0.03 0.02 4 1025.9
20260506173807 63 22 2.0 8.0 0.00 0.03 0.02 4 1025.9
20260506172805 63 20 4.0 8.0 0.00 0.03 0.02 4 1025.8
20260506172307 63 37 3.0 7.0 0.00 0.03 0.02 4 1025.8
20260506171807 63 33 3.0 6.0 0.00 0.03 0.02 4 1025.9
20260506170805 63 15 2.0 8.0 0.00 0.03 0.02 4 1026.0
20260506165305 63 20 2.0 3.0 0.00 0.03 0.02 4 1026.1
20260506164303 63 16 2.0 7.0 0.00 0.03 0.02 4 1026.0
20260506163804 63 23 2.0 7.0 0.00 0.03 0.02 4 1026.1
20260506163304 63 25 1.0 5.0 0.00 0.03 0.02 4 1026.2
20260506161304 63 0 2.0 7.0 0.00 0.03 0.02 4 1026.3
20260506155804 63 22 5.0 10.0 0.00 0.03 0.02 4 1026.3
20260506154804 63 9 2.0 5.0 0.00 0.03 0.02 4 1026.4
20260506154303 63 20 3.0 7.0 0.00 0.03 0.02 4 1026.4
20260506153304 63 22 2.0 3.0 0.00 0.03 0.02 4 1026.5
20260506151803 63 11 1.0 3.0 0.00 0.03 0.02 4 1026.5
20260506151304 63 27 1.0 6.0 0.00 0.03 0.02 4 1026.5
20260506150804 63 21 1.0 3.0 0.00 0.03 0.02 4 1026.5
20260506145804 62 22 2.0 5.0 0.00 0.03 0.02 4 1026.5
20260506141303 62 345 2.0 5.0 0.00 0.03 0.02 4 1027.0
20260506140304 62 24 0.0 1.0 0.00 0.03 0.02 4 1027.2
20260506134303 62 23 2.0 5.0 0.00 0.03 0.02 4 1027.3
20260506131304 61 306 0.0 2.0 0.02 0.03 0.02 4 1027.6
20260506130804 61 296 1.0 3.0 0.02 0.03 0.02 4 1027.6
20260506130304 61 307 1.0 2.0 0.02 0.03 0.02 4 1027.7
20260506125804 61 286 0.0 3.0 0.00 0.03 0.02 4 1027.8
20260506125305 61 321 1.0 7.0 0.00 0.03 0.02 4 1027.9
20260506124803 61 328 1.0 2.0 0.00 0.03 0.02 4 1027.8
20260506124304 62 323 1.0 2.0 0.00 0.03 0.02 4 1027.9
20260506123304 62 346 2.0 3.0 0.01 0.02 0.01 4 1028.0
20260506122305 62 14 1.0 3.0 0.01 0.02 0.01 4 1027.9
20260506121306 62 27 2.0 3.0 0.00 0.02 0.00 4 1027.8
20260506120818 62 12 2.0 5.0 0.00 0.02 0.00 4 1027.9
20260506120303 62 26 2.0 7.0 0.00 0.02 0.00 4 1027.9
20260506115804 62 30 3.0 6.0 0.02 0.02 0.02 4 1027.9
20260506114804 62 37 0.0 1.0 0.02 0.02 0.02 4 1028.0
20260506112306 62 14 2.0 3.0 0.00 0.00 0.00 4 1028.0
20260506111304 62 32 3.0 7.0 0.00 0.00 0.00 4 1028.0
20260506110804 62 38 5.0 8.0 0.00 0.00 0.00 4 1027.9
20260506105804 62 42 3.0 7.0 0.00 0.00 0.00 4 1028.0
20260506104303 62 39 3.0 7.0 0.00 0.00 0.00 4 1028.1
20260506102305 61 27 4.0 8.0 0.00 0.00 0.00 4 1028.1
20260506101803 61 21 4.0 8.0 0.00 0.00 0.00 4 1028.1